Simultaneous Nadir Overpasses (SNOs) Predictions

Prediction of SNOs between GOES-15 and METOP-C Satellite Orbit:

Table of predicted SNOs for the next 14.0 days since TLE Epoch: 4/14/2024
Index Date Time (GOES-15) GOES-15 Lat,Lon METOP-C Lat,Lon Distance(km) Time Diff (sec)
1 04/14/2024 17:16:53 0.11, 61.24 0.44, 62.73 169.75 80
2 04/16/2024 05:35:47 -0.12, 61.30 0.60, 58.16 357.66 80
3 04/17/2024 05:17:50 -0.12, 61.31 -0.55, 63.15 210.16 80
4 04/18/2024 17:36:51 0.13, 61.28 -0.49, 58.56 310.23 80
5 04/19/2024 17:16:14 0.13, 61.29 0.65, 63.54 257.46 80
6 04/21/2024 05:32:28 -0.13, 61.35 0.37, 58.98 270.13 80
7 04/22/2024 05:14:30 -0.13, 61.36 -0.72, 63.97 297.57 80
8 04/23/2024 17:33:31 0.13, 61.33 -0.31, 59.38 223.12 80
9 04/24/2024 17:10:12 0.13, 61.35 0.79, 64.37 343.99 80
10 04/26/2024 05:29:07 -0.14, 61.43 0.22, 59.81 184.86 80
11 04/27/2024 05:11:08 -0.14, 61.45 -0.88, 64.80 381.82 80
